User: anonymous   Login
Location: Guayaquil
(2.1667°S, 79.9000°W)
Time: 21:09:04
(UTC-05:00)
Language:

NEE 01 PEGASUS - Orbit

View from above orbital plane
View from above orbital plane
View from above satellite
View from above satellite

Ground track
Ground track

The orbit data is extracted from the following two-line orbital elements,

1 39151U 13018B   18022.45743007  .00000168  00000-0  29223-4 0  9992
2 39151  97.9781 117.5666 0018259  63.1393 297.1682 14.79843616255965
Epoch (UTC): 22 January 2018 10:58:41
Eccentricity: 0.0018259
inclination: 97.9781°
perigee height: 617 km
apogee height: 642 km
right ascension of ascending node: 117.5666°
argument of perigee: 63.1393°
revolutions per day: 14.79843616
mean anomaly at epoch: 297.1682°
orbit number at epoch: 25596

The dashed part of the orbit path shows where the satellite is in the earth's shadow,  

DLR